This is the latest recevied weather packets stored in our database for station/object YO6SAY-10. If no packets are shown the sender has not sent any weather packets the latest 1 day(s).
| Time | Temp. | Humidity | Pressure | Rain* | Wind** | Luminosity | Snow |
|---|---|---|---|---|---|---|---|
| 1778049995 | 16.67° C | 51% | 948.2 hPa | - | - | - | - |
| 1778049095 | 16.67° C | 51% | 948.2 hPa | - | - | - | - |
| 1778048195 | 16.67° C | 51% | 948.2 hPa | - | - | - | - |
| 1778047295 | 16.11° C | 51% | 948.3 hPa | - | - | - | - |
| 1778044594 | 16.11° C | 51% | 948.3 hPa | - | - | - | - |
| 1778043694 | 16.11° C | 51% | 948.3 hPa | - | - | - | - |
| 1778042794 | 15.56° C | 52% | 948.2 hPa | - | - | - | - |
| 1778041894 | 15.56° C | 51% | 948.1 hPa | - | - | - | - |
| 1778040994 | 15.56° C | 51% | 948 hPa | - | - | - | - |
| 1778037393 | 15.56° C | 51% | 947.8 hPa | - | - | - | - |
| 1778036493 | 15.56° C | 51% | 947.8 hPa | - | - | - | - |
| 1778035593 | 15.56° C | 52% | 947.6 hPa | - | - | - | - |
| 1778034693 | 15.56° C | 51% | 947.6 hPa | - | - | - | - |
| 1778033792 | 15.56° C | 51% | 947.6 hPa | - | - | - | - |
| 1778031992 | 16.11° C | 50% | 947.5 hPa | - | - | - | - |
| 1778031092 | 16.11° C | 51% | 947.6 hPa | - | - | - | - |
| 1778030192 | 16.11° C | 50% | 947.6 hPa | - | - | - | - |
| 1778029292 | 16.11° C | 50% | 947.6 hPa | - | - | - | - |
| 1778028392 | 16.67° C | 50% | 947.4 hPa | - | - | - | - |
| 1778023891 | 16.67° C | 48% | 947.1 hPa | - | - | - | - |
| 1778022091 | 17.22° C | 48% | 947.3 hPa | - | - | - | - |
| 1778017589 | 17.78° C | 46% | 947.3 hPa | - | - | - | - |
| 1778015789 | 18.33° C | 45% | 947.3 hPa | - | - | - | - |
* Rain since midnight (hover to see other rain measurements)
** Current wind speed in m/s (hover to see current wind gust speed)